US 13 & Pinetree Rd, Middletown DE USA current weather conditions

sailwx.info

Wind from 200 at 0 knots gusting 7

Air temperature 30.2° C
Dewpoint 19.1° C

Last reported at 2020-Aug-03 17:00 UTC.
Time now 2020-Aug-03 17:55 UTC

Location: N 39°24' W 075°40'.
View on Google Maps.

See reports from other nearby stations

  
Tides and Currents Weather Stations Pressure Air Temp Water Temp Dewpoint Dewpoint Depression Visibility Wind Speed Wind Dir Waves Ship Positions
date/time (UTC)wind fromknots sea level pressurealtimeterstation pressurevisibilityair tempwater tempwave heightnotes
2020-Aug-03 17:00 200 0 gusting 7 30.2
2020-Aug-03 16:50 190 3 gusting 7 30.1
2020-Aug-03 16:45 29.9
2020-Aug-03 16:40 165 2 gusting 6 29.4
2020-Aug-03 16:35 160 3 gusting 5 29.2
2020-Aug-03 16:30 190 2 gusting 5 30.1
2020-Aug-03 16:25 245 2 gusting 4 29.9
2020-Aug-03 16:20 190 1 gusting 7 29.9
2020-Aug-03 16:15 230 3 gusting 7 29.2
2020-Aug-03 16:10 210 1 gusting 6 29.4
2020-Aug-03 16:05 180 2 gusting 6 29.2
2020-Aug-03 16:00 230 1 gusting 6 29.6
2020-Aug-03 15:55 245 2 gusting 6 29.4
2020-Aug-03 15:50 190 3 gusting 4 29.4
2020-Aug-03 15:45 185 3 gusting 4 29.2
2020-Aug-03 15:40 145 2 gusting 6 29.4
2020-Aug-03 15:35 255 3 gusting 6 29.6
2020-Aug-03 15:30 195 2 gusting 6 29.4
2020-Aug-03 15:25 295 2 gusting 6 29.6
2020-Aug-03 15:20 065 0 gusting 5 28.9
2020-Aug-03 15:15 195 3 gusting 5 28.6
2020-Aug-03 15:10 195 0 gusting 5 29.1
2020-Aug-03 15:05 165 1 gusting 5 29.4
2020-Aug-03 15:00 350 0 gusting 5 28.9
2020-Aug-03 14:55 230 2 gusting 3 29.2
2020-Aug-03 14:50 235 1 gusting 3 28.6
2020-Aug-03 14:45 125 1 gusting 4 28.6
2020-Aug-03 14:40 275 3 gusting 4 28.6
2020-Aug-03 14:35 295 2 gusting 4 28.4
2020-Aug-03 14:30 230 1 gusting 4 28.2
2020-Aug-03 14:25 320 1 gusting 4 28.2
2020-Aug-03 14:20 325 2 gusting 4 27.9
2020-Aug-03 14:15 275 2 gusting 4 27.9
2020-Aug-03 14:10 320 3 gusting 5 27.8
2020-Aug-03 14:05 295 2 gusting 5 27.9
2020-Aug-03 14:00 260 3 gusting 4 27.9
2020-Aug-03 13:55 350 2 gusting 5 27.8
2020-Aug-03 13:50 315 3 gusting 5 27.9
2020-Aug-03 13:45 325 2 gusting 4 27.8
2020-Aug-03 13:40 250 1 gusting 7 27.6
2020-Aug-03 13:35 305 3 gusting 7 27.6
2020-Aug-03 13:30 335 2 gusting 4 27.9
2020-Aug-03 13:25 275 2 gusting 5 27.8
2020-Aug-03 13:20 295 3 gusting 5 27.4
2020-Aug-03 13:15 350 2 gusting 6 27.1
2020-Aug-03 13:10 26.9
2020-Aug-03 13:05 345 1 gusting 5 27.1
2020-Aug-03 13:00 330 2 gusting 2 27.2
2020-Aug-03 12:55 355 1 gusting 3 26.9
2020-Aug-03 12:50 300 1 gusting 3 26.6
2020-Aug-03 12:45 350 1 gusting 3 26.6
2020-Aug-03 12:40 285 1 gusting 4 26.2
2020-Aug-03 12:35 355 2 gusting 4 26.1
2020-Aug-03 12:30 005 1 gusting 4 26.2
2020-Aug-03 12:25 295 1 gusting 3 26.2
2020-Aug-03 12:20 275 1 gusting 2 26.1
2020-Aug-03 12:15 010 0 gusting 3 25.9
2020-Aug-03 12:10 310 1 gusting 3 25.6
2020-Aug-03 12:05 285 1 gusting 2 24.9
2020-Aug-03 12:00 240 1 gusting 2 24.4
2020-Aug-03 11:55 255 0 gusting 2 24.4
2020-Aug-03 11:50 230 2 gusting 3 24.4
2020-Aug-03 11:45 225 1 gusting 2 24.4
2020-Aug-03 11:40 240 1 gusting 3 24.2
2020-Aug-03 11:35 245 2 gusting 3 23.6
2020-Aug-03 11:30 250 2 gusting 3 23.8
2020-Aug-03 11:25 215 1 gusting 3 23.4
2020-Aug-03 11:20 210 1 gusting 3 23.2
2020-Aug-03 11:15 210 1 gusting 3 23.2
2020-Aug-03 11:10 230 1 gusting 3 23.2
2020-Aug-03 11:05 245 1 gusting 3 22.9
2020-Aug-03 11:00 230 1 gusting 3 22.6
2020-Aug-03 10:55 225 2 gusting 3 22.6
2020-Aug-03 10:50 235 2 gusting 3 22.6
2020-Aug-03 10:45 210 2 gusting 3 22.6
2020-Aug-03 10:40 210 1 gusting 2 22.6
2020-Aug-03 10:35 180 1 gusting 2 22.6
2020-Aug-03 10:30 195 1 gusting 2 22.6
2020-Aug-03 10:25 235 1 gusting 2 22.4
2020-Aug-03 10:20 225 1 gusting 2 22.2
2020-Aug-03 10:15 190 1 gusting 2 22.2
2020-Aug-03 10:10 210 2 gusting 3 22.2
2020-Aug-03 10:05 235 1 gusting 3 22.2
2020-Aug-03 10:00 205 1 gusting 2 22.2
2020-Aug-03 09:55 195 1 gusting 2 22.4
2020-Aug-03 09:50 195 1 gusting 2 22.4
2020-Aug-03 09:45 190 1 gusting 3 22.4
2020-Aug-03 09:40 210 1 gusting 3 22.6
2020-Aug-03 09:35 285 1 gusting 6 22.9
2020-Aug-03 09:30 330 2 gusting 6 22.8
2020-Aug-03 09:25 265 1 gusting 3 22.9
2020-Aug-03 09:20 220 1 gusting 2 22.9
2020-Aug-03 09:15 225 1 gusting 2 22.9
2020-Aug-03 09:10 245 1 gusting 3 23.4
2020-Aug-03 09:05 23.9
2020-Aug-03 09:00 295 1 gusting 4 23.9
2020-Aug-03 08:55 255 0 gusting 4 23.6
2020-Aug-03 08:50 250 1 gusting 3 23.4
2020-Aug-03 08:45 205 2 gusting 3 23.6
2020-Aug-03 08:40 225 2 gusting 3 23.9
2020-Aug-03 08:35 210 1 gusting 3 24.1
2020-Aug-03 08:30 200 2 gusting 3 24.4
2020-Aug-03 08:25 250 0 gusting 2 24.9
2020-Aug-03 08:20 225 0 gusting 2 25.1
2020-Aug-03 08:15 220 1 gusting 3 25.2
2020-Aug-03 08:10 230 1 gusting 5 25.6
2020-Aug-03 08:05 245 3 gusting 5 25.6
2020-Aug-03 08:00 260 1 gusting 3 25.6
2020-Aug-03 07:55 285 0 gusting 3 25.6
2020-Aug-03 07:50 245 1 gusting 3 25.8
2020-Aug-03 07:45 180 1 gusting 3 25.9
2020-Aug-03 07:40 230 2 gusting 3 25.9
2020-Aug-03 07:35 240 2 gusting 3 25.9
2020-Aug-03 07:30 220 1 gusting 3 25.9
2020-Aug-03 07:25 255 1 gusting 4 26.1
2020-Aug-03 07:20 260 2 gusting 4 26.1
2020-Aug-03 07:15 275 2 gusting 4 26.1
2020-Aug-03 07:10 250 1 gusting 4 26.1
2020-Aug-03 07:05 260 1 gusting 5 26.1
2020-Aug-03 07:00 240 2 gusting 5 26.1
2020-Aug-03 06:55 215 3 gusting 4 26.1
2020-Aug-03 06:50 230 2 gusting 4 26.1
2020-Aug-03 06:45 240 2 gusting 5 26.2
2020-Aug-03 06:40 290 2 gusting 5 26.4
2020-Aug-03 06:35 325 2 gusting 5 26.4
2020-Aug-03 06:30 260 3 gusting 5 26.4
2020-Aug-03 06:25 255 2 gusting 4 26.4
2020-Aug-03 06:20 255 1 gusting 3 26.4
2020-Aug-03 06:15 250 1 gusting 3 26.4
2020-Aug-03 06:10 250 1 gusting 4 26.4
2020-Aug-03 06:05 250 2 gusting 4 26.4
2020-Aug-03 06:00 230 2 gusting 4 26.6
2020-Aug-03 05:55 260 2 gusting 5 26.6
2020-Aug-03 05:50 235 2 gusting 5 26.6
2020-Aug-03 05:45 260 2 gusting 4 26.6
2020-Aug-03 05:40 245 3 gusting 4 26.6
2020-Aug-03 05:35 250 2 gusting 4 26.6
2020-Aug-03 05:30 255 1 gusting 4 26.6
2020-Aug-03 05:25 235 2 gusting 4 26.6
2020-Aug-03 05:20 280 1 gusting 4 26.6
2020-Aug-03 05:15 170 1 gusting 5 26.6
2020-Aug-03 05:10 235 2 gusting 5 26.6
2020-Aug-03 05:05 260 3 gusting 5 26.6
2020-Aug-03 05:00 210 1 gusting 5 26.6
2020-Aug-03 04:55 205 1 gusting 5 26.8
2020-Aug-03 04:50 220 2 gusting 5 26.6
2020-Aug-03 04:45 190 2 gusting 7 26.8
2020-Aug-03 04:40 200 3 gusting 7 26.9
2020-Aug-03 04:35 215 2 gusting 5 27.1
2020-Aug-03 04:30 205 3 gusting 6 27.2
2020-Aug-03 04:25 205 3 gusting 7 27.2
2020-Aug-03 04:20 210 3 gusting 8 27.4
2020-Aug-03 04:15 210 4 gusting 7 27.4
2020-Aug-03 04:10 250 2 gusting 7 27.4
2020-Aug-03 04:05 220 3 gusting 6 27.6
2020-Aug-03 04:00 190 3 gusting 6 27.6
2020-Aug-03 03:55 235 2 gusting 7 27.6
2020-Aug-03 03:50 230 3 gusting 7 27.6
2020-Aug-03 03:45 225 3 gusting 7 27.8
2020-Aug-03 03:40 245 3 gusting 7 27.8
2020-Aug-03 03:35 220 3 gusting 7 27.6
2020-Aug-03 03:30 235 2 gusting 4 27.6
2020-Aug-03 03:25 220 3 gusting 4 27.6
2020-Aug-03 03:20 180 2 gusting 5 27.8
2020-Aug-03 03:15 195 2 gusting 5 27.8
2020-Aug-03 03:10 195 3 gusting 5 27.8
2020-Aug-03 03:05 210 1 gusting 5 27.9
2020-Aug-03 03:00 210 1 gusting 4 27.8
2020-Aug-03 02:55 240 1 gusting 5 27.8
2020-Aug-03 02:50 225 2 gusting 6 27.9
2020-Aug-03 02:45 205 3 gusting 6 27.9
2020-Aug-03 02:40 185 2 gusting 5 27.9
2020-Aug-03 02:35 215 2 gusting 6 27.9
2020-Aug-03 02:30 215 3 gusting 6 28.1
2020-Aug-03 02:25 235 2 gusting 6 28.1
2020-Aug-03 02:20 200 3 gusting 8 28.1
2020-Aug-03 02:15 235 3 gusting 8 28.4
2020-Aug-03 02:10 200 3 gusting 6 28.4
2020-Aug-03 02:05 195 4 gusting 6 28.4
2020-Aug-03 02:00 200 3 gusting 6 28.4
2020-Aug-03 01:55 195 4 gusting 6 28.4
2020-Aug-03 01:50 185 3 gusting 6 28.6
2020-Aug-03 01:45 185 4 gusting 6 28.8
2020-Aug-03 01:40 185 4 gusting 7 28.9
2020-Aug-03 01:35 200 3 gusting 6 28.9
2020-Aug-03 01:30 200 3 gusting 6 28.9
2020-Aug-03 01:25 210 3 gusting 5 28.9
2020-Aug-03 01:20 200 2 gusting 4 28.9
2020-Aug-03 01:15 210 1 gusting 5 29.1
2020-Aug-03 01:10 240 2 gusting 5 29.2
2020-Aug-03 01:05 235 2 gusting 7 29.2
2020-Aug-03 01:00 235 2 gusting 7 29.4
2020-Aug-03 00:55 215 3 gusting 6 29.4
2020-Aug-03 00:50 210 2 gusting 7 29.4
2020-Aug-03 00:45 230 2 gusting 7 29.6
2020-Aug-03 00:40 225 3 gusting 8 29.6
2020-Aug-03 00:35 200 2 gusting 8 29.6
2020-Aug-03 00:30 190 3 gusting 8 29.8
2020-Aug-03 00:25 240 3 gusting 6 29.6
2020-Aug-03 00:20 195 3 gusting 6 29.6
2020-Aug-03 00:15 200 1 gusting 4 29.8
2020-Aug-03 00:10 190 2 gusting 4 29.9
2020-Aug-03 00:05 210 1 gusting 2 30.1
2020-Aug-03 00:00 200 30.2
2020-Aug-02 23:55 175 2 gusting 4 30.4
2020-Aug-02 23:50 180 1 gusting 4 30.4
2020-Aug-02 23:45 225 1 gusting 5 30.4
2020-Aug-02 23:40 200 3 gusting 5 30.6
2020-Aug-02 23:35 185 1 gusting 4 30.8
2020-Aug-02 23:30 200 2 gusting 4 30.8
2020-Aug-02 23:25 195 1 gusting 3 30.8
2020-Aug-02 23:20 195 2 gusting 4 30.9
2020-Aug-02 23:15 220 1 gusting 4 30.9
2020-Aug-02 23:10 195 2 gusting 6 31.1
2020-Aug-02 23:05 235 2 gusting 6 31.4
2020-Aug-02 23:00 210 3 gusting 6 31.6
2020-Aug-02 22:55 220 3 gusting 8 31.8
2020-Aug-02 22:50 250 3 gusting 8 31.9
2020-Aug-02 22:45 190 2 gusting 8 31.8
2020-Aug-02 22:40 215 3 gusting 11 31.9
2020-Aug-02 22:35 230 6 gusting 11 32.0
2020-Aug-02 22:30 215 4 gusting 10 32.2
2020-Aug-02 22:25 210 2 gusting 10 32.2
2020-Aug-02 22:20 230 5 gusting 10 32.1
2020-Aug-02 22:15 225 2 gusting 7 32.5
2020-Aug-02 22:10 210 3 gusting 7 32.2
2020-Aug-02 22:05 195 4 gusting 10 32.5
2020-Aug-02 22:00 185 5 gusting 10 32.5
2020-Aug-02 21:55 195 3 gusting 9 32.5
2020-Aug-02 21:50 250 3 gusting 11 32.5
2020-Aug-02 21:45 195 2 gusting 9 32.9
2020-Aug-02 21:40 255 4 gusting 13 32.6
2020-Aug-02 21:35 245 5 gusting 13 32.5
2020-Aug-02 21:30 235 5 gusting 12 32.4
2020-Aug-02 21:25 220 4 gusting 12 32.4
2020-Aug-02 21:20 200 4 gusting 15 32.5
2020-Aug-02 21:15 235 4 gusting 15 32.5
2020-Aug-02 21:10 185 5 gusting 11 32.8
2020-Aug-02 21:05 260 5 gusting 10 32.8
2020-Aug-02 21:00 210 6 gusting 10 32.5
2020-Aug-02 20:55 245 4 gusting 11 32.5
2020-Aug-02 20:50 230 4 gusting 12 32.9
2020-Aug-02 20:45 235 5 gusting 11 32.8
2020-Aug-02 20:40 230 5 gusting 10 33.0
2020-Aug-02 20:35 225 5 gusting 13 32.6
2020-Aug-02 20:30 245 6 gusting 13 32.8
2020-Aug-02 20:25 220 3 gusting 12 33.0
2020-Aug-02 20:20 230 2 gusting 10 33.2
2020-Aug-02 20:15 200 4 gusting 14 33.0
2020-Aug-02 20:10 255 6 gusting 14 33.0
2020-Aug-02 20:05 205 6 gusting 12 33.0
2020-Aug-02 20:00 280 4 gusting 16 33.1
2020-Aug-02 19:55 240 6 gusting 16 32.9
2020-Aug-02 19:50 200 7 gusting 13 32.6
2020-Aug-02 19:45 215 4 gusting 10 32.8
2020-Aug-02 19:40 245 4 gusting 9 32.5
2020-Aug-02 19:35 210 4 gusting 12 31.9
2020-Aug-02 19:30 175 6 gusting 12 32.8
2020-Aug-02 19:25 215 6 gusting 11 32.5
2020-Aug-02 19:20 215 5 gusting 11 32.4
2020-Aug-02 19:15 210 4 gusting 12 33.0
2020-Aug-02 19:10 255 6 gusting 20 33.1
2020-Aug-02 19:05 250 6 gusting 20 32.5
2020-Aug-02 19:00 250 9 gusting 16 32.8
2020-Aug-02 18:55 250 9 gusting 16 32.8
2020-Aug-02 18:50 255 8 gusting 15 33.0
2020-Aug-02 18:45 245 6 gusting 13 33.4
2020-Aug-02 18:40 245 4 gusting 12 33.2
2020-Aug-02 18:35 195 4 gusting 12 32.5
2020-Aug-02 18:30 215 4 gusting 9 33.0
2020-Aug-02 18:25 220 4 gusting 11 32.6
2020-Aug-02 18:20 260 6 gusting 12 33.0
2020-Aug-02 18:15 260 6 gusting 12 33.2
2020-Aug-02 18:10 255 5 gusting 9 33.0
2020-Aug-02 18:05 265 5 gusting 10 33.0
2020-Aug-02 18:00 250 4 gusting 10 32.5
2020-Aug-02 17:55 250 4 gusting 11 32.5
2020-Aug-02 17:50 195 5 gusting 13 33.0
2020-Aug-02 17:45 235 2 gusting 13 33.0
2020-Aug-02 17:40 190 6 gusting 12 33.2
2020-Aug-02 17:35 240 4 gusting 12 32.9
2020-Aug-02 17:30 190 6 gusting 10 32.6
2020-Aug-02 17:25 240 5 gusting 10 32.8
2020-Aug-02 17:20 235 5 gusting 11 33.0
2020-Aug-02 17:15 220 5 gusting 11 32.5
2020-Aug-02 17:10 180 5 gusting 11 32.5
2020-Aug-02 17:05 260 4 gusting 13 32.5
2020-Aug-02 17:00 195 7 gusting 13 32.4
2020-Aug-02 16:55 185 6 gusting 12 31.9
2020-Aug-02 16:50 195 7 gusting 12 31.9
2020-Aug-02 16:45 180 2 gusting 9 31.9
2020-Aug-02 16:40 180 5 gusting 9 31.9
2020-Aug-02 16:35 255 4 gusting 10 32.4
2020-Aug-02 16:30 190 4 gusting 9 32.1
2020-Aug-02 16:25 210 6 gusting 9 31.8
2020-Aug-02 16:20 200 3 gusting 10 31.6
2020-Aug-02 16:15 190 5 gusting 13 31.6
2020-Aug-02 16:10 245 3 gusting 10 31.4
2020-Aug-02 16:05 190 4 gusting 10 31.2
2020-Aug-02 16:00 180 6 gusting 9 31.2
2020-Aug-02 15:55 205 3 gusting 10 30.9
2020-Aug-02 15:50 185 6 gusting 9 30.9
2020-Aug-02 15:45 230 4 gusting 9 31.4
2020-Aug-02 15:40 185 3 gusting 7 31.2
2020-Aug-02 15:35 210 3 gusting 8 30.6
2020-Aug-02 15:30 190 4 gusting 8 30.1
2020-Aug-02 15:25 230 3 gusting 7 31.1
2020-Aug-02 15:20 190 3 gusting 8 30.8
2020-Aug-02 15:15 260 4 gusting 10 30.1
2020-Aug-02 15:10 210 4 gusting 10 29.9
2020-Aug-02 15:05 210 4 gusting 9 29.9
2020-Aug-02 15:00 185 5 gusting 9 29.8
2020-Aug-02 14:55 190 5 gusting 10 29.8
2020-Aug-02 14:50 185 4 gusting 10 29.6
2020-Aug-02 14:45 215 4 gusting 10 29.6
2020-Aug-02 14:40 200 5 gusting 10 29.4
2020-Aug-02 14:35 230 3 gusting 10 29.1
2020-Aug-02 14:30 190 6 gusting 9 29.6
2020-Aug-02 14:25 240 4 gusting 10 29.6
2020-Aug-02 14:20 205 4 gusting 10 28.6
2020-Aug-02 14:15 185 4 gusting 11 28.8
2020-Aug-02 14:10 225 4 gusting 10 28.8
2020-Aug-02 14:05 185 6 gusting 11 28.9
2020-Aug-02 14:00 175 4 gusting 9 28.9
2020-Aug-02 13:55 225 3 gusting 7 28.9
2020-Aug-02 13:50 215 2 gusting 7 28.4
2020-Aug-02 13:45 235 3 gusting 9 27.9
2020-Aug-02 13:40 250 2 gusting 9 27.6
2020-Aug-02 13:35 250 3 gusting 7 27.6
2020-Aug-02 13:30 235 2 gusting 6 27.6
2020-Aug-02 13:25 235 3 gusting 7 27.4
2020-Aug-02 13:20 225 3 gusting 7 27.1
2020-Aug-02 13:15 220 3 gusting 7 27.1
2020-Aug-02 13:10 210 4 gusting 7 27.4
2020-Aug-02 13:05 240 2 gusting 6 26.9
2020-Aug-02 13:00 185 3 gusting 8 26.9
2020-Aug-02 12:55 200 4 gusting 8 26.9
2020-Aug-02 12:50 195 3 gusting 6 26.9
2020-Aug-02 12:45 205 3 gusting 7 26.6
2020-Aug-02 12:40 210 3 gusting 9 26.6
2020-Aug-02 12:35 180 4 gusting 9 26.6
2020-Aug-02 12:30 190 4 gusting 7 26.4
2020-Aug-02 12:25 200 3 gusting 7 26.4
2020-Aug-02 12:20 185 3 gusting 8 26.4
2020-Aug-02 12:15 185 5 gusting 8 26.4
2020-Aug-02 12:10 195 3 gusting 6 26.1
2020-Aug-02 12:05 195 3 gusting 7 25.9
2020-Aug-02 12:00 195 3 gusting 7 25.8
2020-Aug-02 11:55 200 4 gusting 7 25.6
2020-Aug-02 11:50 180 3 gusting 7 25.6
2020-Aug-02 11:45 225 4 gusting 7 25.6
2020-Aug-02 11:40 200 3 gusting 7 25.4
2020-Aug-02 11:35 240 3 gusting 7 25.4
2020-Aug-02 11:30 215 3 gusting 5 25.1
2020-Aug-02 11:25 195 2 gusting 7 25.1
2020-Aug-02 11:20 185 5 gusting 7 24.9
2020-Aug-02 11:15 200 2 gusting 6 24.9
2020-Aug-02 11:10 195 2 gusting 6 25.1
2020-Aug-02 11:05 195 3 gusting 5 24.9
2020-Aug-02 11:00 195 3 gusting 6 24.9
2020-Aug-02 10:55 180 4 gusting 8 24.9
2020-Aug-02 10:50 190 4 gusting 8 24.9
2020-Aug-02 10:45 190 3 gusting 5 24.8
2020-Aug-02 10:40 185 3 gusting 7 24.6
2020-Aug-02 10:35 205 4 gusting 7 24.6
2020-Aug-02 10:30 200 3 gusting 7 24.6
2020-Aug-02 10:25 200 4 gusting 7 24.6
2020-Aug-02 10:20 180 3 gusting 7 24.6
2020-Aug-02 10:15 180 4 gusting 7 24.4
2020-Aug-02 10:10 175 3 gusting 7 24.6
2020-Aug-02 10:05 185 5 gusting 7 24.6
2020-Aug-02 10:00 185 3 gusting 8 24.6
2020-Aug-02 09:55 185 4 gusting 10 24.6
2020-Aug-02 09:50 185 6 gusting 10 24.6
2020-Aug-02 09:45 180 5 gusting 8 24.6
2020-Aug-02 09:40 185 4 gusting 8 24.8
2020-Aug-02 09:35 185 4 gusting 9 24.8
2020-Aug-02 09:30 195 5 gusting 8 24.9
2020-Aug-02 09:25 180 4 gusting 9 24.9
2020-Aug-02 09:20 185 4 gusting 9 24.9
2020-Aug-02 09:15 190 5 gusting 9 24.9
2020-Aug-02 09:10 190 4 gusting 8 24.9
2020-Aug-02 09:05 185 4 gusting 9 24.9
2020-Aug-02 09:00 195 6 gusting 9 24.9
2020-Aug-02 08:55 200 5 gusting 10 24.9
2020-Aug-02 08:50 180 4 gusting 9 24.9
2020-Aug-02 08:45 195 4 gusting 8 25.1
2020-Aug-02 08:40 195 5 gusting 10 24.9
2020-Aug-02 08:35 195 5 gusting 10 25.1
2020-Aug-02 08:30 205 4 gusting 8 24.9
2020-Aug-02 08:25 180 3 gusting 9 24.9
2020-Aug-02 08:20 190 4 gusting 9 24.9
2020-Aug-02 08:15 200 6 gusting 9 24.9
2020-Aug-02 08:10 185 5 gusting 9 24.9
2020-Aug-02 08:05 190 5 gusting 8 24.9
2020-Aug-02 08:00 180 4 gusting 8 24.9
2020-Aug-02 07:55 180 4 gusting 8 24.9
2020-Aug-02 07:50 185 4 gusting 8 25.1
2020-Aug-02 07:45 190 4 gusting 8 24.9
2020-Aug-02 07:40 185 5 gusting 9 24.9
2020-Aug-02 07:35 180 5 gusting 9 24.9
2020-Aug-02 07:30 180 5 gusting 8 24.8
2020-Aug-02 07:25 180 4 gusting 9 24.8
2020-Aug-02 07:20 185 5 gusting 9 24.8
2020-Aug-02 07:15 195 3 gusting 9 24.6
2020-Aug-02 07:10 185 5 gusting 9 24.6
2020-Aug-02 07:05 170 4 gusting 9 24.6
2020-Aug-02 07:00 185 4 gusting 7 24.6
2020-Aug-02 06:55 185 4 gusting 7 24.6
2020-Aug-02 06:50 160 3 gusting 9 24.4
2020-Aug-02 06:45 160 4 gusting 9 24.4
2020-Aug-02 06:40 185 3 gusting 7 24.4
2020-Aug-02 06:35 185 4 gusting 7 24.4
2020-Aug-02 06:30 195 3 gusting 6 24.4
2020-Aug-02 06:25 185 3 gusting 6 24.4
2020-Aug-02 06:20 175 3 gusting 4 24.4
2020-Aug-02 06:15 165 1 gusting 4 24.4
2020-Aug-02 06:10 185 3 gusting 4 24.4
2020-Aug-02 06:05 160 1 gusting 4 24.4
2020-Aug-02 06:00 145 2 gusting 4 24.6
2020-Aug-02 05:55 185 1 gusting 5 24.6
2020-Aug-02 05:50 195 3 gusting 5 24.6
2020-Aug-02 05:45 195 1 gusting 5 24.6
2020-Aug-02 05:40 175 2 gusting 5 24.6
2020-Aug-02 05:35 180 2 gusting 5 24.6
2020-Aug-02 05:30 180 3 gusting 4 24.6
2020-Aug-02 05:25 175 2 gusting 4 24.6
2020-Aug-02 05:20 175 2 gusting 3 24.4
2020-Aug-02 05:15 180 2 gusting 5 24.4
2020-Aug-02 05:10 180 2 gusting 5 24.6
2020-Aug-02 05:05 200 2 gusting 4 24.6
2020-Aug-02 05:00 190 3 gusting 4 24.6
2020-Aug-02 04:55 165 2 gusting 5 24.6
2020-Aug-02 04:50 200 3 gusting 5 24.6
2020-Aug-02 04:45 185 2 gusting 5 24.6
2020-Aug-02 04:40 185 2 gusting 5 24.6
2020-Aug-02 04:35 155 1 gusting 4 24.6
2020-Aug-02 04:30 185 2 gusting 4 24.8
2020-Aug-02 04:25 160 2 gusting 4 24.8
2020-Aug-02 04:20 185 2 gusting 4 24.9
2020-Aug-02 04:15 185 2 gusting 4 24.9
2020-Aug-02 04:10 185 1 gusting 5 24.9
2020-Aug-02 04:05 180 2 gusting 5 24.9
2020-Aug-02 04:00 185 2 gusting 4 25.1
2020-Aug-02 03:55 190 3 gusting 4 25.1
2020-Aug-02 03:50 180 4 gusting 5 25.1
2020-Aug-02 03:45 190 3 gusting 5 25.1
2020-Aug-02 03:40 180 3 gusting 5 25.2
2020-Aug-02 03:35 190 2 gusting 6 25.2
2020-Aug-02 03:30 210 3 gusting 6 25.2
2020-Aug-02 03:25 190 2 gusting 5 25.2
2020-Aug-02 03:20 180 2 gusting 6 25.2
2020-Aug-02 03:15 195 3 gusting 6 25.1
2020-Aug-02 03:10 200 3 gusting 6 25.1
2020-Aug-02 03:05 180 3 gusting 6 25.1
2020-Aug-02 03:00 180 4 gusting 5 25.1
2020-Aug-02 02:55 185 2 gusting 5 25.2
2020-Aug-02 02:50 195 3 gusting 4 25.1
2020-Aug-02 02:45 190 3 gusting 4 25.1
2020-Aug-02 02:40 175 2 gusting 3 25.2
2020-Aug-02 02:35 175 1 gusting 2 25.4
2020-Aug-02 02:30 170 1 gusting 2 25.4
2020-Aug-02 02:25 185 1 gusting 2 25.4
2020-Aug-02 02:20 180 1 gusting 3 25.6
2020-Aug-02 02:15 185 0 gusting 3 25.6
2020-Aug-02 02:10 180 2 gusting 4 25.6
2020-Aug-02 02:05 180 2 gusting 4 25.8
2020-Aug-02 02:00 165 2 gusting 4 25.9
2020-Aug-02 01:55 185 2 gusting 6 25.9
2020-Aug-02 01:50 185 3 gusting 6 25.9
2020-Aug-02 01:45 200 2 gusting 4 25.9
2020-Aug-02 01:40 170 2 gusting 6 25.9
2020-Aug-02 01:35 175 2 gusting 5 26.1
2020-Aug-02 01:30 195 3 gusting 5 26.1
2020-Aug-02 01:25 185 3 gusting 6 25.9
2020-Aug-02 01:00 175 2 gusting 6 26.1
2020-Aug-02 00:50 190 3 gusting 5 26.1
2020-Aug-02 00:45 190 2 gusting 4 26.1
2020-Aug-02 00:40 170 2 gusting 5 26.1
2020-Aug-02 00:35 175 1 gusting 5 26.1
2020-Aug-02 00:30 175 3 gusting 5 26.1
2020-Aug-02 00:25 180 3 gusting 6 26.2
2020-Aug-02 00:20 190 2 gusting 6 26.4
2020-Aug-02 00:15 180 3 gusting 4 26.4
2020-Aug-02 00:10 195 2 gusting 3 26.4
2020-Aug-02 00:05 200 0 gusting 3 26.8
2020-Aug-02 00:00 150 1 gusting 3 26.9
2020-Aug-01 23:55 150 1 gusting 4 26.9
2020-Aug-01 23:50 185 2 gusting 4 27.1
2020-Aug-01 23:45 165 1 gusting 3 27.1
2020-Aug-01 23:40 190 2 gusting 3 27.2
2020-Aug-01 23:35 145 0 gusting 3 27.4
2020-Aug-01 23:30 145 2 gusting 5 27.4
2020-Aug-01 23:25 180 2 gusting 5 27.4
2020-Aug-01 23:20 185 2 gusting 5 27.6
2020-Aug-01 23:15 185 4 gusting 5 27.6
2020-Aug-01 23:10 180 3 gusting 7 27.8
2020-Aug-01 23:05 170 3 gusting 6 27.8
2020-Aug-01 23:00 185 4 gusting 6 27.9
2020-Aug-01 22:55 190 4 gusting 6 27.9
2020-Aug-01 22:50 180 4 gusting 6 28.2
2020-Aug-01 22:45 185 3 gusting 6 28.4
2020-Aug-01 22:40 150 1 gusting 6 28.6
2020-Aug-01 22:35 185 3 gusting 6 28.8
2020-Aug-01 22:30 200 3 gusting 7 28.6
2020-Aug-01 22:25 180 3 gusting 7 28.9
2020-Aug-01 22:20 185 4 gusting 7 29.1
2020-Aug-01 22:15 180 4 gusting 7 29.2
2020-Aug-01 22:10 175 3 gusting 7 28.9
2020-Aug-01 22:05 170 4 gusting 7 28.9
2020-Aug-01 22:00 180 3 gusting 5 29.4
2020-Aug-01 21:55 175 2 gusting 4 29.8
2020-Aug-01 21:50 190 1 gusting 3 29.6
2020-Aug-01 21:45 180 1 gusting 4 29.6
2020-Aug-01 21:40 180 3 gusting 4 29.9
2020-Aug-01 21:35 190 2 gusting 6 29.9
2020-Aug-01 21:30 160 3 gusting 5 30.4
2020-Aug-01 21:25 155 2 gusting 6 30.4
2020-Aug-01 21:20 155 4 gusting 6 30.4
2020-Aug-01 21:15 085 1 gusting 6 30.6
2020-Aug-01 21:10 125 4 gusting 6 30.6
2020-Aug-01 21:05 185 3 gusting 6 30.8
2020-Aug-01 21:00 110 4 gusting 5 30.6
2020-Aug-01 20:55 100 2 gusting 7 30.6
2020-Aug-01 20:50 145 4 gusting 7 30.8
2020-Aug-01 20:45 125 2 gusting 4 31.1
2020-Aug-01 20:40 085 1 gusting 5 30.9
2020-Aug-01 20:35 145 3 gusting 6 30.9
2020-Aug-01 20:30 145 3 gusting 6 30.9
2020-Aug-01 20:25 195 3 gusting 6 30.6
2020-Aug-01 20:20 145 3 gusting 6 30.9
2020-Aug-01 20:15 115 3 gusting 6 30.9
2020-Aug-01 20:10 185 3 gusting 6 30.8
2020-Aug-01 20:05 175 3 gusting 6 30.6
2020-Aug-01 20:00 200 3 gusting 6 30.8
2020-Aug-01 19:55 145 2 gusting 7 30.6
2020-Aug-01 19:50 130 3 gusting 7 30.6
2020-Aug-01 19:45 165 3 gusting 6 30.8
2020-Aug-01 19:40 195 2 gusting 8 30.8
2020-Aug-01 19:35 200 5 gusting 7 30.9
2020-Aug-01 19:30 210 2 gusting 7 31.1
2020-Aug-01 19:25 135 4 gusting 7 30.6
2020-Aug-01 19:20 135 3 gusting 7 30.6
2020-Aug-01 19:15 150 2 gusting 4 29.9
2020-Aug-01 19:10 195 2 gusting 4 30.4
2020-Aug-01 19:05 180 3 gusting 6 30.1
2020-Aug-01 19:00 135 2 gusting 6 29.8
2020-Aug-01 18:55 180 3 gusting 6 30.1
2020-Aug-01 18:50 155 3 gusting 6 30.1
2020-Aug-01 18:45 180 4 gusting 6 30.4
2020-Aug-01 18:40 210 2 gusting 6 30.4
2020-Aug-01 18:35 180 3 gusting 6 30.6
2020-Aug-01 18:30 270 1 gusting 3 31.9
2020-Aug-01 18:25 170 0 gusting 5 30.9
2020-Aug-01 18:20 190 3 gusting 6 30.4
2020-Aug-01 18:15 195 3 gusting 6 30.1
2020-Aug-01 18:10 175 3 gusting 4 30.9
2020-Aug-01 18:05 175 2 gusting 5 29.8
2020-Aug-01 18:00 155 3 gusting 5 30.1
2020-Aug-01 17:55 195 4 gusting 6 30.1
2020-Aug-01 17:50 180 3 gusting 6 29.6
2020-Aug-01 17:45 185 2 gusting 4 30.1
2020-Aug-01 17:40 190 2 gusting 7 30.1
2020-Aug-01 17:35 190 2 gusting 7 29.8
2020-Aug-01 17:30 180 4 gusting 7 30.1
2020-Aug-01 17:25 135 5 gusting 7 30.4
2020-Aug-01 17:20 200 4 gusting 6 31.1
2020-Aug-01 17:15 210 3 gusting 6 30.9
2020-Aug-01 17:10 195 3 gusting 6 30.4
2020-Aug-01 17:05 150 2 gusting 5 29.8
2020-Aug-01 17:00 220 1 gusting 6 30.2